www.pogodaiklimat.ru

Погода и климат >> Архив погоды >> Германия >> Куксхавен


ПОГОДА в Куксхавене

  • Прогноз погоды в Куксхавене
  • Монитор погоды в Куксхавене

АРХИВ ПОГОДЫ в Куксхавене

Время (UTC), дата Ветер
(напр.,м/с)
 
Видим.   Явления Облачность Т
(С)
Тd
(С)
f
(%)
Тe
(С)
Тes
(С)
Комфортность P
(гПа)
Po
(гПа)
Тmin
(С)
Tmax
(С)
R
(мм)
R24
(мм)
S
(см)
01 9.06 ЮЗ 6-11
{14}
н/о ясно +13.6 +8.4 71 +11 +11 1019.5 1018.1
02 9.06 ЮЗ 6-10
{11}
н/о ясно +13.3 +8.2 71 +11 +11 1020.0 1018.5
03 9.06 Ю 4-7
{14}
н/о ясно +12.4 +8.4 77 +10 +10 1020.4 1018.9
04 9.06 Ю 4-8
{8}
н/о 3/3 720 м
[]
+12.4 +8.6 78 +10 +11 1021.1 1019.6
05 9.06 Ю 5-9
{9}
н/о 1/1 600 м
[]
+12.6 +8.6 77 +10 +11 1021.9 1020.4
06 9.06 ЮЗ 5 н/о 5/0
[]
+14.0 +9.5 74 +12 +14 1022.4 1020.9 +12.1 +15.6
07 9.06 ЮЗ 5 н/о 9/9 540 м
[]
+14.8 +10.1 73 +13 +14 1022.9 1021.5
08 9.06 ЮЗ 5 н/о 10/0
[]
+15.8 +9.6 67 +15 +17 1023.3 1021.9
09 9.06 ЮЗ 4 н/о 10/0
[]
+16.7 +8.0 56 +16 +21 1023.5 1022.1
10 9.06 ЮЗ 5 н/о 9/9 1110 м
[]
+17.3 +8.1 55 +17 +18 1023.7 1022.3
11 9.06 ЮЗ 4 н/о 5/5 1230 м
[]
+18.3 +8.0 51 +18 +24 1023.5 1022.1
12 9.06 ЮЗ 4 н/о 5/5 1380 м
[]
+19.4 +6.0 42 +20 +25 1023.1 1021.7
13 9.06 З 4 н/о 5/5 1470 м
[]
+20.4 +6.9 42 +22 +27 комфорт 1022.9 1021.5
14 9.06 З 3 н/о 5/5 1500 м
[]
+19.5 +7.0 44 +20 +26 1022.5 1021.1
15 9.06 С 2 н/о 6/6 1500 м
[]
+18.2 +12.0 67 +19 +23 1022.2 1020.8
16 9.06 СЗ 2 н/о 8/8 1500 м
[]
+18.4 +11.5 64 +19 +21 1022.1 1020.7
17 9.06 СЗ 4 н/о 10/0 2000 м
[]
+17.3 +11.7 70 +17 +18 1021.8 1020.4
18 9.06 СЗ 3 н/о 10/0
[]
+16.6 +10.8 69 +16 +17 1021.8 1020.4 +14.0 +20.9
19 9.06 С 2-4
{6}
н/о 10/0
[]
+16.7 +12.6 77 +17 +17 1021.5 1020.1
20 9.06 СВ 5-8
{8}
н/о 10/0
[]
+16.7 +11.9 73 +16 +16 1021.5 1020.1
21 9.06 СВ 6 н/о 10/0
[]
+16.3 +12.3 77 +15 +15 1021.5 1020.1
22 9.06 СВ 5 н/о 10/0
[]
+15.9 +12.1 78 +15 +15 1020.9 1019.5
23 9.06 СВ 5-6
{9}
н/о 10/0
[]
+15.5 +12.0 80 +14 +14 1020.2 1018.8
00 10.06 СВ 4 н/о 10/0
[]
+15.3 +11.5 78 +14 +14 1020.0 1018.6
01 10.06 СВ 4 н/о 10/0
[]
+15.3 +10.8 75 +14 +14 1019.3 1017.9
02 10.06 В 5 н/о 10/0 2000 м
[]
+15.4 +11.0 75 +14 +14 1018.7 1017.3
03 10.06 СВ 5 н/о 10/0
[]
+15.3 +11.5 78 +14 +14 1017.8 1016.4
04 10.06 В 6 н/о 10/0
[]
+15.2 +11.2 77 +14 +14 1017.4 1016.0
05 10.06 СВ 6-8
{8}
н/о 10/0
[]
+15.2 +11.6 79 +14 +14 1016.9 1015.5
06 10.06 В 7 н/о 10/0
[]
+15.4 +11.9 80 +14 +14 1016.7 1015.3 +15.0 +16.9
07 10.06 В 8 н/о 10/0 2000 м
[]
+14.7 +12.1 84 +12 +13 1016.2 1014.8
08 10.06 В 7-9
{10}
н/о 10/0
[]
+15.1 +12.3 83 +13 +15 1016.0 1014.6
09 10.06 В 9 н/о 10/0 2000 м
[]
+15.7 +12.5 81 +14 +14 1015.6 1014.2 0.1
10 10.06 В 8 н/о 10/10 1500 м
[]
+16.4 +12.9 80 +15 +15 1015.4 1014.0
11 10.06 В 7 н/о 10/0 2000 м
[]
+17.8 +13.2 74 +17 +19 1014.9 1013.5
12 10.06 СВ 6 н/о 10/0 2000 м
[]
+18.2 +13.4 74 +18 +21 1014.5 1013.1
13 10.06 В 9-11
{11}
н/о 10/0
[]
+17.1 +12.3 73 +16 +17 1014.4 1013.0
14 10.06 В 8 н/о 10/10 800 м
[]
+16.5 +12.9 79 +15 +15 1013.8 1012.4
15 10.06 В 8 н/о 9/0 2000 м
[]
+17.6 +13.5 77 +17 +17 1013.2 1011.8 0.1
16 10.06 СВ 6-8
{11}
н/о 10/0
[]
+18.1 +14.5 79 +18 +19 1012.8 1011.4
17 10.06 В 8 н/о 10/0
[]
+18.5 +14.7 79 +18 +19 1012.1 1010.7
18 10.06 В 9 н/о 10/0
[]
+18.1 +14.1 77 +17 +17 1012.1 1010.7 +14.6 +19.0
19 10.06 В 9-12
{12}
н/о 10/0
[]
+17.2 +14.7 85 +16 +16 1011.8 1010.4
20 10.06 В 8 н/о 9/0
[]
+16.4 +14.8 90 +15 +15 1011.7 1010.3
21 10.06 В 6 н/о 9/9 270 м
[]
+15.7 +15.1 96 +14 +14 1012.0 1010.6 2
22 10.06 СВ 4 н/о 9/9 150 м
[]
+15.4 +15.1 98 +14 +14 1012.2 1010.8
23 10.06 СВ 6 н/о 9/9 150 м
[]
+15.3 +15.0 98 +14 +14 1011.5 1010.1
00 11.06 В 8 н/о 10/10 1000 м
[]
+15.2 +14.6 96 +13 +13 1011.2 1009.8 8
01 11.06 В 6 н/о 9/9 630 м
[]
+15.5 +14.9 96 +14 +14 1010.7 1009.3
02 11.06 В 9 н/о 10/10 570 м
[]
+15.1 +13.6 91 +13 +13 1010.1 1008.7
03 11.06 В 9 н/о 10/10 210 м
[]
+14.8 +13.8 94 +12 +12 1009.2 1007.8 1
04 11.06 В 5-6
{10}
н/о 10/10 150 м
[]
+14.8 +14.0 95 +13 +13 1009.9 1008.5
05 11.06 В 4-5
{6}
н/о 10/10 120 м
[]
+15.0 +14.2 95 +14 +14 1009.7 1008.3
06 11.06 ЮВ 5 н/о 10/10 100 м
[]
+15.3 +14.5 95 +14 +14 1010.3 1008.9 +14.6 +18.2 11
07 11.06 В 4-5
{8}
н/о 10/10 150 м
[]
+15.1 +14.5 96 +14 +14 1010.1 1008.7
08 11.06 В 3-4
{5}
н/о 9/9 150 м
[]
+15.1 +14.6 97 +14 +15 1010.3 1008.9
09 11.06 В 4 3700 м 10/10 120 м
[]
+15.5 +15.1 97 +14 +14 1010.2 1008.8 7
10 11.06 В 3-4
{6}
15 км 10/10 180 м
[]
+16.7 +15.6 93 +16 +16 1009.9 1008.5
11 11.06 ЮВ 2 18 км 10/10 210 м
[]
+17.4 +15.8 90 +18 +18 1010.3 1008.9
12 11.06 В 2 15 км 10/10 360 м
[]
+18.2 +16.1 88 +19 +19 1010.6 1009.2 0.1
13 11.06 ЮЗ 3 9000 м 10/10 300 м
[]
+19.1 +16.9 87 +21 +21 комфорт 1010.9 1009.5
14 11.06 ЮЗ 5 24 км 9/9 540 м
[]
+19.5 +15.5 78 +21 +22 комфорт 1011.3 1009.9
15 11.06 ЮЗ 5 25 км 6/6 630 м
[]
+20.3 +14.6 70 +23 +25 комфорт 1011.6 1010.2 0.6
16 11.06 З 6-10
{10}
16 км 1/1 630 м
[]
+19.4 +14.2 72 +21 +23 комфорт 1011.5 1010.1
17 11.06 З 4-6
{10}
17 км ясно +19.6 +13.7 69 +21 +23 комфорт 1011.7 1010.3
18 11.06 З 3 18 км 3/0
[]
+19.3 +13.4 69 +21 +22 комфорт 1012.3 1010.9 +15.0 +20.7
19 11.06 СЗ 4 15 км 5/0
[]
+16.4 +14.3 87 +16 +16 1012.9 1011.5
20 11.06 СЗ 3 14 км 9/0
[]
+15.7 +14.2 91 +15 +15 1012.9 1011.5
21 11.06 СЗ 4 15 км 8/0
[]
+15.2 +14.0 93 +14 +14 1013.3 1011.9
22 11.06 СЗ 5 19 км 10/0
[]
+15.1 +13.6 91 +14 +14 1012.6 1011.2
23 11.06 СЗ 6 26 км 10/0
[]
+15.3 +13.3 88 +14 +14 1011.5 1010.1
00 12.06 СВ 5 16 км 10/10 300 м
[]
+15.6 +14.1 91 +14 +14 1013.8 1012.4
01 12.06 СВ 4 15 км 10/10 630 м
[]
+15.3 +13.5 89 +14 +14 1013.3 1011.9
02 12.06 СВ 2 19 км 10/10 1140 м
[]
+15.6 +14.0 90 +15 +15 1012.5 1011.1
03 12.06 СЗ 5 25 км 10/10 720 м
[]
+15.7 +13.9 89 +14 +14 1010.9 1009.5
04 12.06 СЗ 5 30 км 10/10 600 м
[]
+16.0 +13.8 87 +15 +15 1010.1 1008.7
05 12.06 СЗ 6 35 км 10/0
[]
+16.4 +14.2 87 +15 +16 1010.2 1008.8
06 12.06 С 2 26 км 9/9 300 м
[]
+16.6 +14.4 87 +17 +17 1010.3 1008.9 +15.0 +19.4
07 12.06 С 1 13 км 10/10 480 м
[]
+16.7 +15.1 90 +18 +18 1010.4 1009.0
08 12.06 СВ 4-6
{6}
9000 м 10/10 400 м
[]
+17.5 +15.4 87 +17 +17 1010.5 1009.1
09 12.06 В 6 15 км 10/10 400 м
[]
+17.9 +15.5 86 +17 +17 1010.0 1008.6
10 12.06 В 5-7
{8}
25 км 10/10 400 м
[]
+18.6 +16.2 86 +19 +19 1009.6 1008.2
11 12.06 В 3 19 км 10/10 450 м
[]
+19.0 +15.7 81 +21 +21 комфорт 1008.7 1007.3
12 12.06 В 5 19 км 10/10 500 м
[]
+20.0 +16.5 80 +22 +22 комфорт 1008.2 1006.8
13 12.06 В 5 19 км 10/10 500 м
[]
+20.1 +16.6 80 +23 +23 комфорт 1008.1 1006.7
14 12.06 В 6 29 км 10/10 720 м
[]
+19.8 +16.6 82 +22 +22 комфорт 1007.8 1006.4
15 12.06 Ю 3 10 км 10/10 500 м
[]
+18.8 +17.3 91 +20 +20 1007.9 1006.5 2
16 12.06 ЮЗ 3 7000 м 10/10 210 м
[]
+18.3 +17.5 95 +19 +19 1008.1 1006.7
17 12.06 ЮВ 1 6000 м 10/10 180 м
[]
+18.3 +17.5 95 +20 +20 1006.3 1004.9
18 12.06 Ю 3 8000 м 10/10 1000 м
[]
+18.5 +17.5 94 +19 +19 1007.6 1006.2 +16.3 +20.5 1
19 12.06 Ю 3 8000 м 9/9 270 м
[]
+18.5 +17.1 92 +19 +19 1008.0 1006.6
20 12.06 ЮЗ 4-7
{10}
18 км 6/6 1380 м
[]
+16.4 +14.4 88 +16 +16 1009.2 1007.8
21 12.06 Ю 4-7
{10}
14 км ясно +15.9 +14.0 88 +15 +15 1009.5 1008.1 0.2
22 12.06 Ю 4-8
{9}
13 км ясно +15.5 +13.4 87 +15 +15 1009.9 1008.5
23 12.06 Ю 3-6
{9}
16 км ясно +15.0 +12.7 86 +14 +14 1010.0 1008.6
00 13.06 Ю 3 20 км ясно +14.4 +12.1 86 +13 +13 1010.1 1008.7
01 13.06 Ю 2-4
{5}
23 км 8/0
[]
+13.6 +11.3 86 +13 +13 1010.2 1008.8
02 13.06 Ю 3 20 км 9/0
[]
+13.3 +10.9 85 +12 +12 1010.3 1008.9
03 13.06 Ю 2-4
{5}
14 км ясно +12.7 +11.2 91 +12 +12 1010.4 1009.0
04 13.06 Ю 3-5
{6}
12 км 10/0
[]
+12.8 +11.3 91 +11 +11 1010.5 1009.1
05 13.06 Ю 3-6
{6}
16 км 4/0
[]
+14.0 +11.3 84 +13 +14 1010.9 1009.5
06 13.06 Ю 3 20 км 9/0
[]
+14.8 +11.5 81 +14 +16 1011.1 1009.7 +12.5 +18.7 0.2
07 13.06 Ю 3-6
{6}
19 км 1/0
[]
+16.8 +11.5 71 +17 +22 1011.0 1009.6
08 13.06 Ю 4-8
{9}
35 км ясно +18.2 +11.7 66 +18 +25 1011.1 1009.7
09 13.06 Ю 6 11 км ясно +18.8 +9.5 55 +19 +24 1011.1 1009.7
10 13.06 Ю 5-11
{13}
25 км 1/1 1230 м
[]
+19.6 +9.8 53 +20 +28 1011.4 1010.0
11 13.06 Ю 6-14
{14}
10 км 3/0
[]
+20.6 +8.4 45 +22 +27 комфорт 1011.7 1010.3
12 13.06 Ю 5 70 км 9/9 1500 м
[]
+20.5 +8.2 45 +22 +23 комфорт 1011.8 1010.4
13 13.06 ЮЗ 6 30 км 6/6 1500 м
[]
+20.9 +8.3 44 +22 +24 комфорт 1012.0 1010.6
14 13.06 ЮЗ 5 22 км 5/0 2000 м
[]
+21.8 +8.0 41 +23 +28 комфорт 1012.1 1010.7
15 13.06 Ю 6 45 км 8/8 1500 м
[]
+21.3 +8.0 42 +22 +23 комфорт 1012.2 1010.8
16 13.06 ЮЗ 6-9
{12}
23 км ясно +21.7 +7.2 39 +23 +25 комфорт 1012.0 1010.6
17 13.06 ЮЗ 4 55 км 8/0
[]
+21.5 +7.7 41 +22 +24 комфорт 1012.0 1010.6
18 13.06 Ю 3 70 км 9/0
[]
+20.0 +8.5 47 +21 +22 комфорт 1012.2 1010.8 +14.9 +22.5
19 13.06 Ю 3-5
{6}
70 км 5/0
[]
+19.9 +8.8 49 +21 +21 комфорт 1012.5 1011.1
20 13.06 ЮЗ 4 70 км 10/0 2000 м
[]
+19.0 +9.3 53 +20 +20 1013.4 1012.0
21 13.06 Ю 2 70 км 1/0
[]
+16.8 +11.2 70 +17 +17 1013.6 1012.2
22 13.06 Ю 2 70 км 10/10 1500 м
[]
+16.8 +10.9 68 +17 +17 1013.9 1012.5
23 13.06 ЮВ 2 55 км 9/0 2000 м
[]
+16.7 +10.9 69 +17 +17 1014.0 1012.6
00 14.06 ЮЗ 3 70 км 9/9 600 м
[]
+14.7 +12.0 84 +14 +14 1014.7 1013.3 0.1
01 14.06 Ю 2 70 км 4/0
[]
+14.2 +11.9 86 +14 +14 1014.8 1013.4
02 14.06 ЮВ 2-4
{5}
60 км 8/0
[]
+14.4 +11.3 82 +14 +14 1014.7 1013.3
03 14.06 Ю 3 70 км 4/0
[]
+14.4 +10.4 77 +13 +13 1014.6 1013.2
04 14.06 Ю 2 2400 м 9/9 1500 м
[]
+14.8 +10.4 75 +15 +15 1015.2 1013.8
05 14.06 Ю 2 45 км 6/0 2000 м
[]
+14.7 +10.6 76 +14 +15 1015.4 1014.0
06 14.06 Ю 3 30 км 4/0
[]
+16.1 +11.0 72 +16 +18 1015.9 1014.5 +14.1 +20.3 0.6
07 14.06 Ю 3-6
{6}
30 км 6/0
[]
+18.0 +11.7 67 +18 +22 1016.2 1014.8
08 14.06 ЮВ 2-6
{6}
22 км 3/0
[]
+20.4 +11.2 55 +23 +31 комфорт 1016.0 1014.6
09 14.06 В 5 21 км 5/0
[]
+20.0 +13.7 67 +22 +27 комфорт 1015.6 1014.2
10 14.06 В 5 35 км 9/0
[]
+20.7 +14.1 66 +23 +28 комфорт 1015.2 1013.8
11 14.06 Ю 3 50 км 10/0
[]
+24.3 +11.1 43 +26 +32 жарко 1015.0 1013.6
12 14.06 Ю 3 27 км 10/0
[]
+24.7 +11.5 44 +26 +33 жарко 1014.9 1013.5
13 14.06 ЮЗ 4 70 км 10/10 1500 м
[]
+23.3 +12.0 49 +26 +26 жарко 1015.7 1014.3
14 14.06 СЗ 8 35 км 9/0
[]
+19.8 +14.0 69 +21 +22 комфорт 1015.5 1014.1
15 14.06 СЗ 4-6
{13}
22 км ясно +19.8 +14.8 73 +22 +28 комфорт 1015.4 1014.0
16 14.06 С 1-4
{5}
30 км ясно +21.0 +15.5 71 +25 +32 комфорт 1015.3 1013.9
17 14.06 С 2-4
{4}
50 км 1/0
[]
+21.6 +14.8 65 +25 +28 комфорт 1015.3 1013.9
18 14.06 СВ 4 28 км ясно +20.7 +15.1 70 +24 +25 комфорт 1015.4 1014.0 +16.3 +25.6
19 14.06 СВ 4-6
{6}
45 км 4/0
[]
+20.4 +15.4 73 +23 +23 комфорт 1015.0 1013.6
20 14.06 СВ 5-7
{7}
35 км 8/0
[]
+19.6 +15.8 79 +21 +21 комфорт 1015.1 1013.7
21 14.06 СВ 5 29 км 4/0
[]
+19.3 +15.9 81 +21 +21 комфорт 1015.0 1013.6
22 14.06 СВ 4 27 км 9/0 2000 м
[]
+19.0 +15.7 81 +20 +20 1014.7 1013.3
23 14.06 СВ 5 26 км 10/0
[]
+18.4 +15.8 85 +19 +19 1014.3 1012.9
00 15.06 СВ 4 25 км 10/0
[]
+18.1 +16.1 88 +18 +18 1014.0 1012.6
01 15.06 СВ 3 21 км 10/0
[]
+17.8 +16.2 90 +18 +18 1012.5 1011.1
02 15.06 СВ 5 24 км 10/10 1050 м
[]
+17.7 +15.4 86 +17 +17 1011.8 1010.4
03 15.06 СВ 2 18 км 10/0
[]
+17.4 +15.5 89 +18 +18 1011.6 1010.2
04 15.06 В 3 9000 м 10/10 1500 м
[]
+17.3 +15.9 91 +17 +17 1011.7 1010.3
05 15.06 В 3 8000 м 10/0
[]
+17.5 +16.4 93 +17 +18 1010.4 1009.0
06 15.06 СВ 3 11 км 10/0
[]
+17.6 +16.2 91 +18 +19 1009.6 1008.2 +17.1 +20.8 0.4
07 15.06 СВ 5 10 км 10/0
[]
+17.8 +16.5 92 +17 +19 1009.0 1007.6
08 15.06 СВ 3 12 км 10/0
[]
+18.3 +16.3 88 +19 +23 1008.7 1007.3
09 15.06 СВ 1 10 км 9/9 840 м
[]
+18.7 +16.7 88 +21 +22 комфорт 1008.8 1007.4
10 15.06 В 3-5
{8}
15 км 10/10 1500 м
[]
+18.8 +17.0 89 +20 +20 1008.7 1007.3
11 15.06 штиль 0 10 км 10/10 570 м
[]
+18.4 +17.2 93 +19 +19 1009.1 1007.7
12 15.06 ЮЗ 1 3600 м 10/10 330 м
[]
+18.7 +17.2 91 +21 +21 комфорт 1009.7 1008.3 2
13 15.06 З 5 3900 м 10/10 210 м
[]
+18.0 +16.9 93 +18 +18 1010.2 1008.8
14 15.06 З 5 11 км 9/9 180 м
[]
+17.9 +16.4 91 +17 +18 1010.6 1009.2
15 15.06 З 5 30 км 8/8 360 м
[]
+19.1 +16.0 82 +20 +21 1011.2 1009.8 0.1
16 15.06 З 3 45 км 10/10 720 м
[]
+18.9 +16.3 85 +20 +20 1011.5 1010.1
17 15.06 З 6 8000 м 9/9 180 м
[]
+16.7 +16.0 96 +16 +16 1012.5 1011.1
18 15.06 З 8 30 км 10/10 200 м
[]
+14.8 +13.8 94 +13 +13 1013.7 1012.3 +14.8 +19.7 0.5
19 15.06 З 8-12
{12}
45 км 10/10 240 м
[]
+14.9 +13.5 91 +13 +13 1014.3 1012.9
20 15.06 З 6 35 км 9/9 300 м
[]
+15.1 +13.5 90 +13 +13 1014.9 1013.5
21 15.06 З 7 40 км 10/10 400 м
[]
+14.8 +12.3 85 +13 +13 1015.6 1014.2
22 15.06 З 4-7
{10}
55 км 5/5 500 м
[]
+14.6 +12.3 86 +13 +13 1016.0 1014.6
23 15.06 З 3-5
{7}
40 км ясно +14.2 +12.0 87 +13 +13 1016.5 1015.1
00 16.06 З 3 40 км 6/0
[]
+13.8 +12.0 89 +13 +13 1016.6 1015.2

 

Местоположение метеостанции Куксхавен (Германия): широта 53.87 долгота 8.70 высота над уровнем моря 4 м.

В архиве по умолчанию представлена погода в Куксхавене за последнюю неделю. Архивные данные за месяц целиком и за предыдущие месяцы, начиная с января 2011 года, Вы можете получить, выбрав интересующий диапазон дат из раскрывающегося списка и нажав кнопку "Ввод!".


*Определитесь, кто Вы:
робот инопланетянин человек

Внимание! Время в таблицах - всемирное. Для получения местного времени необходимо прибавить поправку, которая равна 1 ч.

Смотрите также архив погоды в соседних городах и на ближайших метеорологических станциях:

Погода в Нордхольце (Германия) (11 км)
Погода в Эльперсбюттеле (Германия) (31 км)
Погода на Маяке Alte Weser (Германия) (37 км)
Погода в Бремерхафене (Германия) (39 км)
Погода в Бремерфёрде (Германия) (51 км)
Погода в Санкт-Петер-Ординге (Германия) (52 км)
Погода в Итцехоэ (Германия) (58 км)
Погода в Гельголанде (Германия) (63 км)
Погода в Хоне (Германия) (74 км)
Погода на Базе ВВС Wittmundhaven (Германия) (77 км)

Пояснения к столбцам:

Ветер - указаны скорость ветра в м/с - средняя за 10 мин, порывы в срок и между сроками (в фигурных скобках) и направление, откуда дует ветер: С - северный, СВ - северо-восточный, В - восточный, ЮВ - юго-восточный, Ю - южный, ЮЗ - юго-западный, З - западный, СЗ - северо-западный.
Видимость - горизонтальная дальность видимости в метрах или километрах. При видимости от 1 до 10 км при отсутствии осадков обычно наблюдается дымка, при ухудшении видимости до 1 км и менее - туман. В сухую погоду видимость может ухудшаться дымом, пылью или мглою.
Явления - указаны атмосферные явления, наблюдавшиеся в срок или в последний час перед сроком; фигурными скобками обозначены явления, наблюдавшиеся между сроками (за 1-3 часа до срока); квадратными скобками обозначены град или гололедные отложения с указанием их диаметра в мм.
Облачность - указаны через наклонную черту общая и нижняя облачность в баллах и высота нижней границы облаков в метрах; квадратными скобками обозначены формы облаков: Ci - перистые, Cs - перисто-слоистые, Cc - перисто-кучевые, Ac - высококучевые, As - высокослоистые, Sc - слоисто-кучевые, Ns - слоисто-дождевые, Cu - кучевые, Cb - кучево-дождевые. Подробнее классификацию облаков см. в Атласе облаков (PDF).
T - Температура воздуха - температура, измеренная на высоте 2 м над землей.
Td - Температура точки росы - температура, при понижении до которой содержащийся в воздухе водяной пар достигнет насыщения.
f - Относительная влажность воздуха - влажноcть воздуха, измеренная на высоте 2 м над землей.
Te - Эффективная температура - температура, которую ощущает одетый по сезону человек в тени. Характеристика душности погоды. При расчете учитывается влияние влажности воздуха и скорости ветра на теплоощущения человека.
Tes - Эффективная температура на солнце - температура, которую ощущает человек, с поправкой на солнечный нагрев. Характеристика знойности погоды. Зависит от высоты солнца над горизонтом, облачности и скорости ветра. Ночью, в пасмурную погоду, а также при ветре 12 м/с и более поправка равна нулю.
P - Атмосферное давление - приведенное к уровню моря атмосферное давление.
Po - Атмосферное давление - измеренное на уровне метеостанции атмосферное давление.
Tmin - Минимальная температура - минимум температуры воздуха на высоте 2 м над землей.
Tmax - Максимальная температура - максимум температуры воздуха на высоте 2 м над землей.
R - Количество осадков - Количество выпавших осадков за период времени, мм. При наведении курсора мыши на число - период времени, за который выпало указанное количество осадков.
R24 - Количество осадков - Количество выпавших осадков за 24 часа, мм.
S - Снежный покров - Высота снежного покрова, см. При наведении курсора мыши на число - состояние снежного покрова и степень покрытия местности в баллах.